Location: Unspecified
(44.2611°N, 0.0000°E)
Time: 06:59:35
(UTC+00:00)

OPS 1127 - Visible Passes

Search period start: 05 April 2026 00:00
Search period end: 15 April 2026 00:00
Orbit: 761 x 826 km, 98.4° (Epoch: 29 March)

Date Brightness Start Highest point End Pass type
(mag) Time Alt. Az. Time Alt. Az. Time Alt. Az.
5 Apr 6.5 20:28:18 10° NNE 20:33:24 86° WNW 20:38:30 10° SSW visible
5 Apr 9.4 22:10:07 10° NNW 22:12:11 13° WNW 22:14:16 10° W visible
6 Apr 6.6 19:59:50 10° NNE 20:04:48 53° E 20:09:46 10° S visible
6 Apr 8.8 21:40:15 10° NNW 21:44:00 21° WNW 21:47:46 10° WSW visible
7 Apr 7.3 19:31:40 10° NE 19:36:05 29° E 19:40:30 10° SSE visible
7 Apr 7.9 21:11:05 10° N 21:15:41 36° WNW 21:20:19 10° SW visible
8 Apr 8.0 19:04:06 10° NE 19:07:15 16° E 19:10:24 10° SE visible
8 Apr 6.9 20:42:14 10° N 20:47:16 64° WNW 20:52:18 10° SSW visible
9 Apr 6.4 20:13:38 10° NNE 20:18:43 72° ESE 20:23:49 10° S visible
9 Apr 9.2 21:54:37 10° NNW 21:57:43 17° WNW 22:00:50 10° W visible
10 Apr 6.9 19:45:18 10° NNE 19:50:04 39° E 19:54:50 10° SSE visible
10 Apr 8.4 21:25:12 10° N 21:29:28 28° WNW 21:33:45 10° WSW visible
11 Apr 7.7 19:17:22 10° NE 19:21:17 22° E 19:25:13 10° SE visible
11 Apr 7.4 20:56:13 10° N 21:01:06 48° WNW 21:06:00 10° SW visible
12 Apr 6.5 20:27:30 10° NNE 20:32:37 86° WNW 20:37:45 10° SSW visible
12 Apr 9.4 22:09:15 10° NNW 22:11:25 13° WNW 22:13:34 10° W visible
13 Apr 6.6 19:59:01 10° NNE 20:04:00 53° E 20:09:02 10° S visible
13 Apr 8.8 21:39:25 10° NNW 21:43:13 22° WNW 21:47:03 10° WSW visible
14 Apr 7.3 19:30:51 10° NE 19:35:18 29° E 19:39:45 10° SSE visible
14 Apr 8.0 21:10:15 10° N 21:14:54 37° WNW 21:19:35 10° SW visible
